ASL45X LFPG-LYBE

Flight info

Callsign ASL45X
Flight time N/A
Altitude 35000
Route LANVI DCT BEGAR DCT TRA DCT GAMSA DCT UMVEG DCT KFT DCT BEDOX DCT LAKIK DCT RIGMU
Aircraft A320/M-SDE3FGHIRWY/LB1

Departure

Time 2026-05-06 13:00
Airport Charles de Gaulle International Airport (LFPG)

Arrival

Time N/A
Airport Belgrade Nikola Tesla Airport (LYBE)
Time Latitude Longitude Altitude Speed Heading
2026-05-06 12:49 49.00564 2.56042 358 ft 3 kts 201°
2026-05-06 12:49 49.00579 2.56056 358 ft 2 kts 242°
2026-05-06 12:50 49.00581 2.56062 361 ft 0 kts 249°
2026-05-06 12:53 49.00581 2.56061 354 ft 1 kts 249°
2026-05-06 12:53 49.00578 2.56039 361 ft 3 kts 264°
2026-05-06 12:53 49.00576 2.55993 354 ft 6 kts 265°
2026-05-06 12:53 49.00572 2.55920 354 ft 8 kts 265°
2026-05-06 12:54 49.00566 2.55821 360 ft 11 kts 265°
2026-05-06 12:54 49.00559 2.55696 356 ft 13 kts 265°
2026-05-06 12:54 49.00554 2.55597 354 ft 15 kts 265°
2026-05-06 12:54 49.00547 2.55462 354 ft 11 kts 265°
2026-05-06 12:55 49.00506 2.55355 354 ft 13 kts 214°
2026-05-06 12:55 49.00428 2.55338 359 ft 11 kts 168°
2026-05-06 12:55 49.00346 2.55374 360 ft 13 kts 164°
2026-05-06 12:55 49.00251 2.55415 357 ft 15 kts 164°
2026-05-06 12:56 49.00142 2.55463 354 ft 17 kts 164°
2026-05-06 12:56 49.00020 2.55515 358 ft 19 kts 164°
2026-05-06 12:56 48.99970 2.55537 357 ft 3 kts 164°
2026-05-06 12:56 48.99942 2.55550 360 ft 6 kts 160°
2026-05-06 12:57 48.99901 2.55583 356 ft 8 kts 145°
2026-05-06 12:57 48.99865 2.55640 357 ft 7 kts 125°
2026-05-06 12:57 48.99840 2.55720 360 ft 10 kts 107°
2026-05-06 12:57 48.99804 2.55799 356 ft 9 kts 155°
2026-05-06 12:58 48.99749 2.55808 356 ft 5 kts 175°
2026-05-06 12:58 48.99707 2.55813 354 ft 7 kts 175°
2026-05-06 12:58 48.99648 2.55820 354 ft 10 kts 175°
2026-05-06 12:58 48.99606 2.55838 356 ft 4 kts 130°
2026-05-06 12:59 48.99603 2.55880 353 ft 0 kts 85°
2026-05-06 12:59 48.99605 2.55919 354 ft 23 kts 85°
2026-05-06 13:00 48.99640 2.56550 359 ft 93 kts 85°
2026-05-06 13:00 48.99707 2.57825 356 ft 146 kts 85°
2026-05-06 13:00 48.99815 2.59514 660 ft 162 kts 80°
2026-05-06 13:00 48.99923 2.61227 1324 ft 163 kts 82°
2026-05-06 13:01 49.00009 2.62947 1994 ft 164 kts 82°
2026-05-06 13:01 49.00100 2.64742 2398 ft 179 kts 82°
2026-05-06 13:01 49.00205 2.66753 2659 ft 203 kts 82°
2026-05-06 13:01 49.00325 2.69037 3034 ft 228 kts 82°
2026-05-06 13:02 49.00462 2.71569 3510 ft 252 kts 82°
2026-05-06 13:02 49.00618 2.74290 4325 ft 261 kts 82°
2026-05-06 13:02 49.00771 2.77069 5259 ft 265 kts 82°
2026-05-06 13:02 49.00929 2.79887 6188 ft 270 kts 82°
2026-05-06 13:03 49.01006 2.82726 7014 ft 277 kts 94°
2026-05-06 13:03 49.00518 2.85603 7853 ft 283 kts 106°
2026-05-06 13:03 48.99894 2.88470 8690 ft 288 kts 107°